Change the Weather History Date:

Sunday, November 3, 2013

  Actual Average Record
Temperature  
Mean Temperature 48 °F -  
Max Temperature 61 °F 66 °F 82 °F (2012)
Min Temperature 35 °F 47 °F 22 °F (1966)
Degree Days  
Heating Degree Days 17    
Moisture  
Dew Point 38 °F    
Average Humidity 78    
Maximum Humidity 100    
Minimum Humidity 39    
Precipitation  
Precipitation 0.00 in - - ()
Sea Level Pressure  
Sea Level Pressure 30.24 in    
Wind  
Wind Speed 1 mph (ESE)    
Max Wind Speed 10 mph    
Max Gust Speed -    
Visibility 8 miles    
Events      
Averages and records for this station are not official NWS values.
T = Trace of Precipitation, MM = Missing Value Source: NWS Daily Summary

Daily Weather History Graph

Daily Weather History Graph

Search for Another Location

Airport or City:

Trip Planner

Search our weather history database for the weather conditions in past years. The results will help you decide how hot, cold, wet, or windy it might be!

Date:

Astronomy

Nov. 03, 2013 Rise Set
Actual Time 6:24 AM CST 5:04 PM CST
Civil Twilight 5:57 AM CST 5:30 PM CST
Nautical Twilight 5:27 AM CST 6:00 PM CST
Astronomical Twilight 4:58 AM CST 6:30 PM CST
Moon 6:27 AM CST (11/3) 5:20 PM CST (11/3)
Length of Visible Light 11h 32m
Length of Day
10h 39m
New Moon, 0% of the Moon is Illuminated
Nov 3
New Moon
Nov 9
First Quarter
Nov 17
Full
Nov 25
Last Quarter
Dec 2
New

Hourly Weather History & Observations

Time (CST) Temp. Windchill Dew Point Humidity Pressure Visibility Wind Dir Wind Speed Gust Speed Precip Events Conditions
12:53 AM 39.0 °F - 37.0 °F 93% 30.22 in 10.0 mi Calm Calm - N/A   Clear
1:53 AM 39.0 °F - 37.9 °F 96% 30.22 in 10.0 mi Calm Calm - N/A   Clear
1:53 AM 39.0 °F - 37.0 °F 93% 30.22 in 6.0 mi Calm Calm - N/A   Clear
2:53 AM 36.0 °F - 36.0 °F 100% 30.22 in 1.8 mi Calm Calm - N/A   Clear
3:04 AM 37.4 °F - 35.6 °F 93% 30.22 in 4.0 mi Calm Calm - N/A   Clear
3:53 AM 37.0 °F - 36.0 °F 96% 30.25 in 7.0 mi Calm Calm - N/A   Clear
4:38 AM 37.4 °F - 35.6 °F 93% 30.25 in 2.5 mi Calm Calm - N/A   Clear
4:46 AM 37.4 °F - 35.6 °F 93% 30.25 in 10.0 mi Calm Calm - N/A   Clear
4:53 AM 37.0 °F - 35.1 °F 93% 30.26 in 9.0 mi Calm Calm - N/A   Clear
5:53 AM 37.0 °F - 36.0 °F 96% 30.29 in 4.0 mi Calm Calm - N/A   Clear
6:16 AM 37.4 °F - 35.6 °F 93% 30.28 in 2.5 mi Calm Calm - N/A   Clear
6:24 AM 35.6 °F - 35.6 °F 100% 30.29 in 0.8 mi Calm Calm - N/A   Clear
6:34 AM 35.6 °F - 35.6 °F 100% 30.29 in 1.2 mi Calm Calm - N/A   Clear
6:53 AM 36.0 °F - 36.0 °F 100% 30.30 in 3.0 mi Calm Calm - N/A   Clear
7:53 AM 44.1 °F - 42.1 °F 93% 30.31 in 10.0 mi Calm Calm - N/A   Clear
8:53 AM 51.1 °F - 43.0 °F 74% 30.31 in 10.0 mi SE 4.6 mph - N/A   Clear
9:53 AM 55.0 °F - 39.0 °F 55% 30.31 in 10.0 mi SE 8.1 mph - N/A   Clear
10:53 AM 57.0 °F - 37.9 °F 49% 30.31 in 10.0 mi SE 10.4 mph - N/A   Clear
11:53 AM 59.0 °F - 36.0 °F 42% 30.27 in 10.0 mi ESE 6.9 mph - N/A   Clear
12:53 PM 60.1 °F - 36.0 °F 41% 30.23 in 10.0 mi ESE 5.8 mph - N/A   Clear
1:53 PM 61.0 °F - 36.0 °F 39% 30.21 in 10.0 mi East 5.8 mph - N/A   Clear
2:53 PM 60.1 °F - 37.0 °F 42% 30.19 in 10.0 mi ESE 5.8 mph - N/A   Clear
3:53 PM 60.1 °F - 37.0 °F 42% 30.16 in 10.0 mi SE 8.1 mph - N/A   Clear
4:53 PM 55.0 °F - 39.9 °F 57% 30.18 in 10.0 mi Calm Calm - N/A   Clear
5:53 PM 50.0 °F - 41.0 °F 71% 30.19 in 10.0 mi Calm Calm - N/A   Clear
6:53 PM 46.0 °F - 39.0 °F 76% 30.20 in 10.0 mi Calm Calm - N/A   Clear
7:53 PM 46.0 °F - 39.9 °F 79% 30.22 in 10.0 mi Calm Calm - N/A   Clear
8:53 PM 44.1 °F - 39.9 °F 85% 30.22 in 10.0 mi Calm Calm - N/A   Clear
9:53 PM 46.9 °F - 41.0 °F 80% 30.21 in 10.0 mi Calm Calm - N/A   Clear
10:53 PM 46.0 °F 43.9 °F 39.0 °F 76% 30.20 in 10.0 mi SE 4.6 mph - N/A   Clear